This demonstration page uses our WeatherBlox Daily Observations layout. Learn more.

Left ArrowRight Arrow

40.92945, -100.16068

Hourly Observations for April 26, 2019

Temp ( °F °C ) Dew Point ( °F °C ) Humidity (%) Winds ( mph kmh ) Pressure ( in mb ) Visibility ( mi km ) Precip ( " mm )
12:15 am 00:15 Clear 45 7.1 35 1.5 68 68 Calm 30.20 1023 10 16 0.00 0.00
12:35 am 00:35 Clear 44 6.7 35 1.4 69 69 Calm 30.20 1023 10 16 0.00 0.00
12:55 am 00:55 Clear 42 5.5 34 1.1 74 74 W 6 9 30.22 1023 10 16 0.00 0.00
1:15 am 01:15 Clear 41 5.1 35 1.8 79 79 W 8 13 30.24 1024 10 16 0.00 0.00
1:35 am 01:35 Clear 39 4 34 1.1 82 82 WNW 6 9 30.25 1024 10 16 0.00 0.00
1:55 am 01:55 Clear 39 4.1 34 0.9 80 80 NW 6 9 30.24 1024 10 16 0.00 0.00
2:15 am 02:15 Clear 39 3.8 33 0.7 80 80 WNW 5 7 30.24 1024 10 16 0.00 0.00
2:35 am 02:35 Clear 39 3.8 34 0.9 82 82 WNW 6 9 30.24 1024 10 16 0.00 0.00
2:55 am 02:55 Clear 37 2.8 32 0 82 82 NW 6 9 30.25 1024 10 16 0.00 0.00
3:15 am 03:15 Clear 37 2.6 32 0 83 83 NW 6 9 30.25 1024 10 16 0.00 0.00
3:35 am 03:35 Partly Cloudy 37 2.8 32 0 82 82 NW 6 9 30.25 1024 10 16 0.00 0.00
3:55 am 03:55 Partly Cloudy 37 2.6 32 0 83 83 WNW 5 7 30.25 1024 10 16 0.00 0.00
4:15 am 04:15 Partly Cloudy 36 2 32 -0.2 86 86 WNW 5 7 30.26 1025 10 16 0.00 0.00
4:35 am 04:35 Clear 37 2.5 32 -0.1 83 83 Calm 30.25 1024 10 16 0.00 0.00
4:55 am 04:55 Clear 35 1.7 31 -0.5 86 86 Calm 30.26 1025 10 16 0.00 0.00
5:15 am 05:15 Clear 35 1.8 31 -0.6 84 84 Calm 30.26 1025 10 16 0.00 0.00
5:35 am 05:35 Clear 35 1.8 32 -0.1 87 87 Calm 30.26 1025 10 16 0.00 0.00
5:55 am 05:55 Partly Cloudy 34 1.3 31 -0.5 88 88 Calm 30.26 1025 10 16 0.00 0.00
6:15 am 06:15 Partly Cloudy 37 2.5 32 0 84 84 W 5 7 30.25 1024 10 16 0.00 0.00
6:35 am 06:35 Cloudy 37 2.6 33 0.6 87 87 Calm 30.25 1024 10 16 0.00 0.00
6:55 am 06:55 Cloudy 39 3.7 35 1.6 86 86 Calm 30.24 1024 10 16 0.00 0.00
7:15 am 07:15 Partly Cloudy 39 4.1 35 1.7 85 85 Calm 30.24 1024 10 16 0.00 0.00
7:35 am 07:35 Partly Cloudy 38 3.6 34 1.3 85 85 Calm 30.25 1024 10 16 0.00 0.00
7:55 am 07:55 Sunny 38 3.3 34 1.1 86 86 Calm 30.25 1025 10 16 0.00 0.00
8:15 am 08:15 Sunny 42 5.7 37 2.8 82 82 Calm 30.22 1023 10 16 0.00 0.00
8:35 am 08:35 Sunny 47 8.2 37 2.6 68 68 E 6 9 30.20 1023 10 16 0.00 0.00
8:55 am 08:55 Sunny 49 9.7 32 0.2 52 52 ESE 12 19 30.18 1022 10 16 0.00 0.00
9:15 am 09:15 Sunny 51 10.5 32 0 49 49 ESE 10 17 30.17 1022 10 16 0.00 0.00
9:35 am 09:35 Sunny 52 11.2 29 -1.5 42 42 ESE 14 22 30.14 1021 10 16 0.00 0.00
9:55 am 09:55 Sunny 53 11.7 31 -0.8 42 42 ESE 14 22 30.14 1021 10 16 0.00 0.00
10:15 am 10:15 Sunny 55 13 29 -1.7 36 36 SE 16 26 30.11 1020 10 16 0.00 0.00
10:35 am 10:35 Sunny 56 13.2 27 -2.6 34 34 SE 14 22 30.10 1019 10 16 0.00 0.00
10:55 am 10:55 Sunny 57 14 26 -3.3 30 30 ESE 18 30 30.08 1019 10 16 0.00 0.00
11:15 am 11:15 Partly Cloudy 59 15.2 28 -2.4 30 30 SE 17 28 30.06 1018 10 16 0.00 0.00
11:35 am 11:35 Cloudy 60 15.5 27 -2.9 28 28 SE 16 26 30.06 1018 10 16 0.00 0.00
11:55 am 11:55 Cloudy 61 16 29 -1.5 30 30 SE 15 24 30.04 1017 10 16 0.00 0.00
12:15 pm 12:15 Cloudy 62 16.6 29 -1.4 29 29 SSE 21 33 30.01 1016 10 16 0.00 0.00
12:35 pm 12:35 Mostly Cloudy 63 17.3 30 -0.9 29 29 SSE 20 31 29.99 1015 10 16 0.00 0.00
12:55 pm 12:55 Sunny 64 17.7 31 -0.5 29 29 SSE 25 41 29.97 1015 10 16 0.00 0.00
1:15 pm 13:15 Sunny 64 18 32 0.1 30 30 SSE 21 33 29.95 1014 10 16 0.00 0.00
1:35 pm 13:35 Sunny 66 18.7 33 0.8 30 30 S 22 35 29.93 1014 10 16 0.00 0.00
1:55 pm 13:55 Sunny 66 19 36 2.2 33 33 S 21 33 29.91 1013 10 16 0.00 0.00
2:15 pm 14:15 Sunny 67 19.2 37 2.7 34 34 S 21 33 29.89 1012 10 16 0.00 0.00
2:35 pm 14:35 Sunny 68 19.9 38 3.3 33 33 SSE 24 39 29.86 1011 10 16 0.00 0.00
2:55 pm 14:55 Sunny 70 20.9 39 3.8 33 33 S 23 37 29.83 1010 10 16 0.00 0.00
3:15 pm 15:15 Sunny 71 21.5 40 4.3 33 33 SSE 20 31 29.82 1010 10 16 0.00 0.00
3:35 pm 15:35 Sunny 73 22.9 42 5.4 32 32 SSE 22 35 29.78 1008 10 16 0.00 0.00
3:55 pm 15:55 Sunny 75 23.9 43 5.9 31 31 SSE 25 41 29.74 1007 10 16 0.00 0.00
4:15 pm 16:15 Partly Cloudy 75 23.7 43 5.9 32 32 SSE 23 37 29.72 1006 10 16 0.00 0.00
4:35 pm 16:35 Partly Cloudy 76 24.7 44 6.5 31 31 S 18 30 29.70 1006 10 16 0.00 0.00
4:55 pm 16:55 Mostly Cloudy 77 25 44 6.7 31 31 S 23 37 29.67 1005 10 16 0.00 0.00
5:15 pm 17:15 Partly Cloudy 78 25.6 44 6.7 30 30 S 20 31 29.65 1004 10 16 0.00 0.00
5:35 pm 17:35 Partly Cloudy 78 25.4 44 6.7 30 30 S 26 43 29.64 1004 10 16 0.00 0.00
5:55 pm 17:55 Partly Cloudy 78 25.5 45 7.2 31 31 S 22 35 29.63 1003 10 16 0.00 0.00
6:15 pm 18:15 Sunny 77 25.2 45 7.3 32 32 S 20 31 29.61 1003 10 16 0.00 0.00
6:35 pm 18:35 Sunny 77 25 45 7.1 32 32 S 26 43 29.60 1002 10 16 0.00 0.00
6:55 pm 18:55 Partly Cloudy 77 25 45 7.2 32 32 S 23 37 29.59 1002 10 16 0.00 0.00
7:15 pm 19:15 Partly Cloudy 76 24.5 45 7.1 33 33 S 21 33 29.59 1002 10 16 0.00 0.00
7:35 pm 19:35 Partly Cloudy 74 23.1 45 7.1 36 36 SE 17 28 29.59 1002 10 16 0.00 0.00
7:55 pm 19:55 Mostly Cloudy 72 22.4 46 8 40 40 SSE 17 28 29.58 1002 10 16 0.00 0.00
8:15 pm 20:15 Mostly Cloudy 72 22.1 45 7.3 39 39 SSE 20 31 29.56 1001 10 16 0.00 0.00
8:35 pm 20:35 Partly Cloudy 69 20.6 44 6.5 40 40 SE 20 31 29.57 1001 10 16 0.00 0.00
8:55 pm 20:55 Partly Cloudy 68 20 44 6.4 41 41 SSE 23 37 29.54 1000 10 16 0.00 0.00
9:15 pm 21:15 Clear with Nearby Thunderstorms 66 19 46 7.7 48 48 SSE 23 37 29.53 1000 10 16 0.00 0.00
9:35 pm 21:35 Partly Cloudy 67 19.4 46 7.5 46 46 SW 15 24 29.62 1003 10 16 0.00 0.00
9:55 pm 21:55 Cloudy with Strong Thunderstorms 57 14.1 50 10.1 77 77 N 3 6 29.69 1006 5 8 0.13 3.30
10:15 pm 22:15 Cloudy with Thunderstorms 57 13.7 52 10.9 83 83 NE 12 19 29.71 1006 10 16 0.02 0.51
10:35 pm 22:35 Cloudy 57 14 52 10.9 82 82 ESE 13 20 29.68 1005 10 16 0.10 2.54
10:55 pm 22:55 Partly Cloudy 58 14.2 51 10.8 80 80 SE 14 22 29.66 1005 10 16 0.10 2.54
11:15 pm 23:15 Clear 56 13.5 51 10.6 83 83 ESE 8 13 29.66 1004 10 16 0.00 0.00
11:35 pm 23:35 Clear 56 13.6 51 10.5 82 82 SE 9 15 29.63 1003 10 16 0.00 0.00
11:55 pm 23:55 Partly Cloudy 56 13.5 50 10.2 81 81 SSE 5 7 29.65 1004 10 16 0.00 0.00

Powered by AerisWeather